Location: Cactus School
(34.5700°N, 118.0931°W)
Time: 04:58:01
(UTC-08:00)

Tiros 1 - Pass Details

Date: 23 November 2019
Orbit: 630 x 664 km, 48.4° (Epoch: 06 December)

Event Time Altitude Azimuth Distance (km) Brightness Sun altitude
Rises 13:44:43 0° 278° (W) 2,914 10.8 27.4°
Reaches altitude 10° 13:47:36 10° 296° (WNW) 2,006 9.9 27.1°
Maximum altitude 13:50:57 19° 343° (NNW) 1,483 8.8 26.7°
Drops below altitude 10° 13:54:19 10° 30° (NNE) 2,010 9.2 26.3°
Sets 13:57:13 0° 48° (NE) 2,921 10.0 25.9°
